Torna al catalogo

STARLINK-3720

AttivoComunicazioniVLEO
NORAD 52136·PAYLOAD·🇺🇸 United States

Lanciato Mar 19, 2022 da Cape Canaveral Space Force Station

Loading…

Prossimi Passaggi (prossime 24 ore)

TLE

AggiornatoSource: CelesTrak SupGP

Epoca: Sep 14, 2026, 20:33 UTC

1 52136C 22029BA  26257.85673611 -.00013778  00000+0 -39424-3 0  2570
2 52136  53.1598 295.0806 0000945  85.9988 337.1440 15.35403137    10

Traccia STARLINK-3720 in tempo reale con AllMySat

Download on the App Store